CST,Max TemperatureF,Mean TemperatureF,Min TemperatureF,Max Dew PointF,MeanDew PointF,Min DewpointF,Max Humidity, Mean Humidity, Min Humidity, Max Sea Level PressureIn, Mean Sea Level PressureIn, Min Sea Level PressureIn, Max VisibilityMiles, Mean VisibilityMiles, Min VisibilityMiles, Max Wind SpeedMPH, Mean Wind SpeedMPH, Max Gust SpeedMPH,PrecipitationIn, CloudCover, Events, WindDirDegrees
2012-12-1,75,63,50,58,54,48,100,77,53,30.29,30.24,30.21,10,6,0,16,6,21,0.00,3,Fog,123
2012-12-2,76,65,53,58,55,52,93,70,46,30.32,30.26,30.22,10,8,3,10,4,13,0.00,2,Fog,135
2012-12-3,76,64,52,63,58,51,100,80,60,30.28,30.23,30.18,10,5,0,20,6,22,0.00,4,Fog,120
2012-12-4,76,68,60,66,62,59,100,84,68,30.28,30.21,30.16,10,4,0,16,7,21,0.03,6,Fog-Rain,135
2012-12-5,73,67,60,62,60,59,100,83,66,30.18,30.12,30.06,10,7,0,10,4,13,0.02,6,Fog-Rain,92
2012-12-6,76,66,56,59,57,54,93,71,49,30.06,30.01,29.96,10,9,4,16,5,20,0.00,2,,122
2012-12-7,74,65,56,64,60,54,100,87,73,30.01,29.97,29.92,10,5,0,13,7,15,0.07,7,Fog-Rain,96
2012-12-8,78,68,57,64,61,55,100,79,57,30.02,29.98,29.93,10,5,0,13,5,17,0.02,7,Fog-Rain,147
2012-12-9,74,64,54,67,62,54,100,84,68,30.06,30.00,29.94,10,6,0,15,8,20,0.00,7,Fog,157
2012-12-10,80,64,48,67,61,43,93,78,62,29.96,29.85,29.78,10,8,1,21,12,25,0.33,7,Rain,240
2012-12-11,48,44,40,43,36,33,86,76,65,30.18,30.07,29.95,10,10,7,16,11,21,0.00,7,,358
2012-12-12,59,48,36,33,30,23,82,54,25,30.28,30.20,30.13,10,10,10,15,8,20,0.00,2,,348
2012-12-13,63,48,33,39,34,28,82,59,36,30.35,30.29,30.25,10,10,8,13,6,18,0.00,0,,17
2012-12-14,57,46,34,46,41,34,93,75,57,30.32,30.24,30.15,10,9,5,14,4,17,0.00,3,,85
2012-12-15,71,59,47,62,54,45,93,78,63,30.14,30.07,30.00,10,10,8,13,6,16,0.00,6,,122
2012-12-16,74,68,61,67,63,58,93,86,79,29.99,29.93,29.86,10,8,5,26,8,43,0.12,7,Rain,163
2012-12-17,67,61,54,64,59,52,93,89,84,29.88,29.82,29.77,10,7,0,16,6,28,0.39,6,Fog-Rain-Thunderstorm,205
2012-12-18,68,54,40,51,44,39,93,65,37,30.04,30.00,29.90,10,9,3,9,3,10,0.00,0,Fog,279
2012-12-19,74,59,44,65,54,41,93,69,44,30.07,29.99,29.91,10,10,6,20,8,23,0.09,4,Rain,134
2012-12-20,73,59,44,70,51,25,90,61,32,30.22,29.94,29.84,10,7,1,28,14,39,0.45,6,Rain,258
2012-12-21,56,43,30,24,20,14,59,40,20,30.37,30.31,30.24,10,10,10,20,8,26,0.00,0,,306
2012-12-22,62,45,27,35,26,20,92,56,19,30.42,30.34,30.26,10,10,10,10,4,15,0.00,1,,327
2012-12-23,61,49,37,56,45,34,92,75,57,30.25,30.15,30.02,10,10,10,13,5,16,T,6,,140
2012-12-24,76,68,59,63,61,57,100,79,57,30.00,29.92,29.86,10,6,0,18,9,23,0.35,6,Fog-Rain,206
2012-12-25,73,63,53,66,61,48,100,87,73,29.89,29.73,29.55,10,5,0,29,12,39,0.58,8,Fog-Rain-Thunderstorm,181
2012-12-26,54,46,37,43,32,30,83,69,54,30.16,29.98,29.70,10,9,7,23,11,36,0.00,5,,307
2012-12-27,53,44,34,36,32,28,85,65,44,30.20,30.13,30.07,10,9,7,15,4,18,0.00,6,,34
2012-12-28,65,52,39,63,52,35,93,80,67,30.08,29.88,29.73,10,8,2,23,11,32,1.03,7,Rain-Thunderstorm,149
2012-12-29,54,44,33,49,34,27,89,70,50,30.39,30.17,29.90,10,10,8,22,12,29,0.00,6,,321
2012-12-30,52,40,27,29,25,22,78,55,32,30.52,30.43,30.36,10,10,8,15,6,18,0.00,2,,10
2012-12-31,60,48,35,51,40,28,86,73,60,30.35,30.25,30.10,10,9,6,12,5,15,0.00,6,,74